Weather Roundup
Issued by NWS Corpus Christi, TX

Home | Current Version | Previous Version | Text Only | Print | Product List | Glossary On
Versions: 1 2 3 4 5 6 7 8 9 10 11 12 13 14 15 16 17 18 19 20 21 22 23 24 25 26 27 28 29 30 31 32 33 34 35 36 37 38 39 40 41 42 43 44 45 46 47 48 49 50
000
ASUS44 KCRP 310510
HRRCRP

SOUTH TEXAS REGIONAL WEATHER ROUNDUP
NATIONAL WEATHER SERVICE CORPUS CHRISTI TX
1200 AM CDT MON AUG 31 2015


TXZ229>244-310600-
...CORPUS CHRISTI AREA OBSERVATIONS...

CITY           SKY/WX    TMP DP  RH WIND       PRES   REMARKS
CORPUS CHRISTI MOCLDY    81  72  74 SE7       29.95S
NAS CORPUS CHR PTCLDY    82  74  76 SE13      29.95S
ROCKPORT       PTCLDY    83  74  74 SE10      29.95S
KINGSVILLE NAS PTCLDY    78  76  93 SE6       29.96S
ALICE          PTCLDY    77  73  87 S8        29.95S
FALFURRIAS     PTCLDY    78  73  85 SE3       29.96R
$$

...VICTORIA AREA OBSERVATIONS...

CITY           SKY/WX    TMP DP  RH WIND       PRES   REMARKS
VICTORIA       MOCLDY    77  70  79 MISG      29.97S
BEEVILLE       FAIR      76  74  93 SE3       29.96S
PLEASANTON     CLEAR     80  68  68 CALM      29.97S
SAN ANTONIO    PTCLDY    80  66  62 SE10      29.98F
$$

...LAREDO AREA OBSERVATIONS...

CITY           SKY/WX    TMP DP  RH WIND       PRES   REMARKS
LAREDO         PTCLDY    83  70  64 SE15      29.96S
COTULLA        PTCLDY    84  71  65 SE10G20   29.95S
DEL RIO        MOCLDY    79  63  57 E8        29.94F
MCALLEN        CLEAR     80  73  79 SE7       29.96S
HEBBRONVILLE   NOT AVBL
$$

...OTHER TEXAS OBSERVATIONS...

CITY           SKY/WX    TMP DP  RH WIND       PRES   REMARKS
BROWNSVILLE    PTCLDY    77  74  90 SE5       29.95F
HOUSTON        PTCLDY    78  69  73 S3        29.99S
COL. STATION   PTCLDY    77  66  68 SE7       29.98S
AUSTIN         PTCLDY    71  67  87 CALM      29.98S
WACO           CLEAR     73  67  81 SW3       29.97S
FORT WORTH     PTCLDY    81  63  54 S10       29.94S
WICHITA FALLS  CLEAR     80  61  52 S12       29.92S
LUBBOCK        CLEAR     71  56  58 SW7       30.04S
EL PASO        CLEAR     80  47  31 SE7       30.04S
$$

...MARINE OBSERVATIONS...

STATION/POSITION TIME  SKY/WX   TEMP    WIND        PRES    VSBY  WAVE   SWELL
                                AIR SEA DIR/SP/G                  HT/PER HT/PER
                 (UTC)          (F)     (DEG/KT/KT) (MB)    (MI)  (FT/S) (FT/S)
PORT ARANSAS     0500            84 87  130/ 16/ 17 1015.1F
BUOY 90 E PORT A 0450            83 85  130/ 12/ 14 1015.0S         1/ 5
BUOY 45 SE BAFFI 0450            84 85  150/ 12/ 12 1014.2R         2/ 4
BUOY 200 E PT IS 0450            85 86  140/ 10/ 10 1015.3F         1/ 5
BUOY 15 E GALVES 0450            84 85  160/  8/ 10 1015.2F         1/ 5
$$


USA.gov is the U.S. government's official web portal to all federal, state and local government web resources and services.